Location: Dana
(41.8364°N, 106.7042°W)
Time: 12:06:48
(UTC+00:00)

ISS - Pass Details

Date: 19 April 2026
Orbit: 414 x 424 km, 51.6° (Epoch: 12 May)

Event Time Altitude Azimuth Distance (km) Brightness Sun altitude
Exits shadow 10:25:20 18° 145° (SE) 1,115 -1.7 -19.9°
Maximum altitude 10:25:52 18° 132° (SE) 1,093 -1.6 -19.9°
Drops below altitude 10° 10:28:15 10° 87° (E) 1,499 -0.2 -19.5°
Sets 10:30:47 0° 68° (ENE) 2,370 1.5 -19.1°
